Showing default

TIANQI-6, 46810

Orbit data source: Space-Track

TIANQI-6, 46810 is a payload satellite owned by Guodian Gaokeji (CN) in LEO that was launched on Mon, 26 Oct 2020 UTC via a CHANG ZHENG 2C launch vehicle from the Xichang Space Center, China (XSC). Payloads include a variety of satellites, spacecraft, and rockets equipped with specific instruments for various scientific and technological missions. These include communications satellites like Starlink; space stations such as the ISS; scientific satellites like the Hubble; Earth observation satellites from companies like Planet Labs, Umbra, and HawkEye 360; GPS; miniature CubeSats for education and research; and military/defense satellites.

Loading next visibility...
TIANQI-6 details
Identifier
46810, 2020-076D
Orbit
LEO
Last TLE update21 hours ago
Origin
Flag of CNGuodian Gaokeji (CN / PRC)
ManufacturerShanghai ASES
MissionOperational Commercial Communications
Bus & MotorSTARLIGHTB, Unknown motor
Mass40 kg wet, ~40 kg dry
Launch date (UTC)
2020-10-26 (4 years ago)
Launch vehicle
CHANG ZHENG 2C
Launch site
Xichang Space Center, China (XSC)
Object type
Payload
Rocket body
Debris
Shape & HBRBox, Unknown HBR
Radar Cross Section0.195 m², Medium (>0.1 m² and < 1m²)

Expand to show TLE details & history

TLE from 21 hours ago
0 TIANQI-6
1 46810U 20076D   24360.60835232  .00010355  00000-0  79626-3 0  9995
2 46810  35.0005  99.8623 0012524 120.9498 239.2442 15.00937889227533
Epoch: 2024-12-25T14:36Z
Definitive object data (Epoch: 2024-12-25T14:36:01.64Z)
Latitude-0.00001°
Longitude146.25579°
Altitude567.374 km
Speed7.577 km/s
True Right ascension06h 39m 26s
True Declination0° 00' 00"
Sunlit
Object was in full shadow at TLE epoch
Visualization TLE readout
Latitude17.59827°
Longitude167.74042°
Altitude563.3 km
Speed7.583 km/s
Apparent Right ascension04h 54m 26s
Apparent Declination-24° 23' 09"
Sunlit
Object is in full shadow
Visualization observer readout
Local Sidereal Time10:51:00
Azimuth250.336° W
Elevation-14.742°
Doppler factor1
Orbital elements
Apogee altitude575.92 km
Perigee altitude558.523 km
Semi-major axis6,945.359 km
Eccentricity0.0012524
Inclination35.0005°
RAAN99.8623°
Arg. of periapsis120.9498°
True anomaly239.12097°
Mean anomaly239.2442°
Eccentric anomaly239.18257°
Mean motion3.74974 °/min
BSTAR0.00079626
Orbital period96.01 mins
Loading maneuver chart data...
Loading historical data...
Loading historical data...
Loading historical data...
Loading historical data...
Loading historical data...
Loading historical data...
Loading historical data...
Other satellites on launch #76 in the year 2020 (2020-10-26 UTC)

TIANQI-6 Visibility forecast

Observer location: undefined°, undefined

Span
Click to sort rows by Start time (UTC) header in descending order
Start Az.
Max El. time (UTC)
Max El. Az.
Max El.
End time (UTC)
End Az.
7 mins2024-12-26 11:37:38.676Z233.37° WSW2024-12-26 11:41:38.676Z158.429° S29.223°2024-12-26 11:44:38.676Z106.409° ESE
6 mins2024-12-26 13:19:38.676Z246.43° WSW2024-12-26 13:22:38.676Z171.83° S32.847°2024-12-26 13:25:38.676Z117.385° SE
4 mins2024-12-26 15:01:38.676Z232.104° WSW2024-12-26 15:03:38.676Z190.029° SSW21.666°2024-12-26 15:05:38.676Z155.043° SSE
4 mins2024-12-27 09:56:38.676Z191.592° SSW2024-12-27 09:58:38.676Z156.033° SSE18.858°2024-12-27 10:00:38.676Z121.648° SE
|